Regional Weather Roundup
Issued by NWS Goodland, KS

Home | Current Version | Previous Version | Graphics & Text | Print | Product List | Glossary On
Versions: 1 2 3 4 5 6 7 8 9 10 11 12 13 14 15 16 17 18 19 20 21 22 23 24 25 26 27 28 29 30 31 32 33 34 35 36 37 38 39 40 41 42 43 44 45 46 47 48 49 50
937
ASUS43 KGLD 241159
RWRGLD

GOODLAND FORECAST AREA HOURLY WEATHER ROUNDUP
NATIONAL WEATHER SERVICE GOODLAND KS
500 AM MST TUE JAN 24 2017

...OFFICIAL OBSERVATIONS...

CITY           SKY/WX    TMP DP  RH WIND       PRES   REMARKS
GOODLAND KS    CLOUDY    29  28  96 NW13      29.43R FOG     WCI  19
HILL CITY KS   CLOUDY    32  32 100 E13       29.45F FOG
IMPERIAL NEB   CLOUDY    31  29  92 NE13      29.50F FOG
MCCOOK NEB     CLOUDY    32  32 100 NE13      29.47F FOG
AKRON CO       FOG       29  27  92 N15       29.49R VSB 3/4 WCI  18
BURLINGTON CO  CLOUDY    30  29  96 NW17      29.43S WCI  18
LIMON CO       CLOUDY    28  26  92 NW13      29.45F WCI  17
$$

...UNOFFICIAL OBSERVATIONS...

CITY           SKY/WX    TMP DP  RH WIND       PRES   REMARKS
LENORA KS        N/A     31  32 100 E9          N/A
NORTON KS      CLOUDY    34  28  80 NE13      29.46F
SHARON SPRINGS   N/A     34  30  85 CALM        N/A
TRENTON NEB      N/A     31  32 100 E9          N/A
KIT CARSON CO    N/A     33  27  80 MISG        N/A
$$




USA.gov is the U.S. government's official web portal to all federal, state and local government web resources and services.